TimeWET,TemperatureF,Dew PointF,Humidity,Sea Level PressureIn,VisibilityMPH,Wind Direction,Wind SpeedMPH,Gust SpeedMPH,PrecipitationIn,Events,Conditions,WindDirDegrees,DateUTC
12:00 AM,64,54,61,29.90,3,SSW,9.2,,,Thunderstorm,Thunderstorm,200,2012-11-17 00:00:00
12:00 AM,64.4,53.6,68,29.89,3.1,SSW,9.2,-,N/A,Thunderstorm,Thunderstorm,200,2012-11-17 00:00:00
12:30 AM,64.4,53.6,68,29.89,3.1,SSW,10.4,-,N/A,Thunderstorm,Thunderstorm,200,2012-11-17 00:30:00
1:00 AM,64.4,53.6,68,29.86,3.1,South,10.4,-,N/A,Thunderstorm,Thunderstorm,190,2012-11-17 01:00:00
1:30 AM,64.4,53.6,68,29.86,3.1,SSW,9.2,-,N/A,Thunderstorm,Thunderstorm,210,2012-11-17 01:30:00
2:00 AM,64.4,51.8,64,29.86,3.1,SSW,9.2,-,N/A,Thunderstorm,Thunderstorm,200,2012-11-17 02:00:00
2:30 AM,64.4,51.8,64,29.86,3.1,SSW,10.4,-,N/A,Thunderstorm,Thunderstorm,210,2012-11-17 02:30:00
3:00 AM,62,54,69,29.85,3,SSW,5.8,,,Thunderstorm,Thunderstorm,210,2012-11-17 03:00:00
3:00 AM,62.6,55.4,77,29.83,3.1,SSW,5.8,-,N/A,Thunderstorm,Thunderstorm,210,2012-11-17 03:00:00
3:30 AM,62.6,55.4,77,29.83,3.1,SSW,5.8,23.0,N/A,Thunderstorm,Thunderstorm,210,2012-11-17 03:30:00
4:00 AM,60.8,55.4,82,29.83,3.1,SSW,12.7,-,N/A,Thunderstorm,Thunderstorm,210,2012-11-17 04:00:00
4:30 AM,60.8,57.2,88,29.83,3.1,SSW,15.0,-,N/A,Thunderstorm,Thunderstorm,210,2012-11-17 04:30:00
5:00 AM,60.8,57.2,88,29.83,3.1,SSW,11.5,-,N/A,Thunderstorm,Thunderstorm,200,2012-11-17 05:00:00
5:19 AM,60.8,57.2,88,29.83,3.1,SSW,10.4,-,N/A,Rain,Rain Showers,200,2012-11-17 05:19:00
5:30 AM,59.0,57.2,94,29.83,3.1,South,8.1,-,N/A,Rain,Rain Showers,190,2012-11-17 05:30:00
6:00 AM,,,,,,Calm,Calm,,,,,,2012-11-17 06:00:00
6:00 AM,59.0,57.2,94,29.83,3.1,South,11.5,-,N/A,Rain,Rain Showers,180,2012-11-17 06:00:00
6:30 AM,60.8,57.2,88,29.83,-9999.0,South,11.5,-,N/A,,Unknown,190,2012-11-17 06:30:00
7:00 AM,60.8,57.2,88,29.83,3.1,South,9.2,-,N/A,Rain,Rain Showers,180,2012-11-17 07:00:00
7:30 AM,59.0,57.2,94,29.83,3.1,South,8.1,-,N/A,,Partly Cloudy,170,2012-11-17 07:30:00
8:00 AM,60.8,57.2,88,29.83,3.1,South,4.6,-,N/A,,Partly Cloudy,180,2012-11-17 08:00:00
8:30 AM,62.6,57.2,82,29.83,3.1,SSW,10.4,-,N/A,,Partly Cloudy,200,2012-11-17 08:30:00
9:00 AM,63,58,80,29.86,3,SSW,12.7,,,,Partly Cloudy,210,2012-11-17 09:00:00
9:00 AM,62.6,59.0,88,29.86,3.1,SSW,12.7,-,N/A,,Partly Cloudy,210,2012-11-17 09:00:00
9:30 AM,64.4,59.0,83,29.83,3.1,SSW,11.5,-,N/A,,Partly Cloudy,210,2012-11-17 09:30:00
10:00 AM,66.2,60.8,83,29.83,3.1,SSW,11.5,-,N/A,,Partly Cloudy,210,2012-11-17 10:00:00
10:30 AM,66.2,59.0,78,29.83,3.1,SSW,18.4,-,N/A,,Partly Cloudy,210,2012-11-17 10:30:00
11:00 AM,68.0,59.0,73,29.83,3.1,SW,17.3,-,N/A,,Partly Cloudy,220,2012-11-17 11:00:00
11:30 AM,68.0,59.0,73,29.83,3.1,SW,18.4,-,N/A,,Partly Cloudy,220,2012-11-17 11:30:00
12:00 PM,,,,,,Calm,Calm,,,,,,2012-11-17 12:00:00
12:00 PM,68.0,59.0,73,29.80,3.1,SW,17.3,-,N/A,,Partly Cloudy,230,2012-11-17 12:00:00
12:12 PM,62.6,59.0,88,29.80,2.5,WSW,18.4,29.9,N/A,Rain,Light Rain Showers,240,2012-11-17 12:12:00
12:30 PM,64.4,60.8,88,29.80,2.5,WSW,11.5,-,N/A,Rain,Light Rain Showers,240,2012-11-17 12:30:00
12:39 PM,64.4,60.8,88,29.80,1.9,WSW,11.5,-,N/A,Rain,Rain Showers,250,2012-11-17 12:39:00
1:00 PM,64.4,60.8,88,29.80,1.9,WSW,12.7,-,N/A,Rain,Rain Showers,250,2012-11-17 13:00:00
1:30 PM,64.4,59.0,83,29.80,1.9,West,16.1,-,N/A,,Partly Cloudy,260,2012-11-17 13:30:00
2:00 PM,64.4,59.0,83,29.77,3.1,West,16.1,-,N/A,,Partly Cloudy,260,2012-11-17 14:00:00
2:30 PM,66.2,59.0,78,29.77,3.1,WSW,18.4,-,N/A,,Partly Cloudy,240,2012-11-17 14:30:00
3:00 PM,66.2,59.0,78,29.77,3.7,WSW,17.3,-,N/A,,Partly Cloudy,250,2012-11-17 15:00:00
3:30 PM,64.4,59.0,83,29.77,3.7,WSW,16.1,-,N/A,,Partly Cloudy,240,2012-11-17 15:30:00
4:00 PM,64.4,59.0,83,29.77,3.7,WSW,13.8,-,N/A,,Partly Cloudy,250,2012-11-17 16:00:00
4:30 PM,64.4,59.0,83,29.77,3.7,WSW,12.7,-,N/A,,Partly Cloudy,240,2012-11-17 16:30:00
5:00 PM,64.4,59.0,83,29.77,3.7,WSW,11.5,-,N/A,,Partly Cloudy,250,2012-11-17 17:00:00
5:30 PM,62.6,59.0,88,29.80,3.1,WSW,12.7,-,N/A,Rain,Light Rain Showers,250,2012-11-17 17:30:00
6:00 PM,61,58,86,29.80,3,WSW,9.2,,,,Overcast,240,2012-11-17 18:00:00
6:00 PM,60.8,57.2,88,29.80,3.1,WSW,9.2,-,N/A,,Partly Cloudy,240,2012-11-17 18:00:00
6:30 PM,60.8,57.2,88,29.80,3.1,SSW,8.1,-,N/A,,Partly Cloudy,210,2012-11-17 18:30:00
7:00 PM,60.8,57.2,88,29.80,3.1,SSW,8.1,-,N/A,,Partly Cloudy,200,2012-11-17 19:00:00
7:30 PM,60.8,57.2,88,29.80,3.1,SSW,10.4,-,N/A,,Partly Cloudy,200,2012-11-17 19:30:00
8:00 PM,60.8,57.2,88,29.80,3.1,SSW,8.1,-,N/A,Rain,Rain Showers,210,2012-11-17 20:00:00
8:30 PM,60.8,57.2,88,29.80,3.1,SSW,11.5,-,N/A,Rain,Light Rain Showers,210,2012-11-17 20:30:00
9:00 PM,60,58,90,29.81,3,SSW,9.2,,,Rain,Light Rain Showers,210,2012-11-17 21:00:00
9:00 PM,60.8,57.2,88,29.80,3.1,SSW,9.2,-,N/A,,Partly Cloudy,210,2012-11-17 21:00:00
9:10 PM,60.8,59.0,94,29.80,1.9,SW,10.4,-,N/A,Rain-Thunderstorm,Thunderstorms and Rain,220,2012-11-17 21:10:00
9:30 PM,60.8,59.0,94,29.80,1.9,SW,9.2,-,N/A,Rain-Thunderstorm,Thunderstorms and Rain,220,2012-11-17 21:30:00
10:00 PM,60.8,57.2,88,29.80,3.1,WSW,17.3,-,N/A,Rain,Light Rain Showers,240,2012-11-17 22:00:00
10:30 PM,59.0,57.2,94,29.80,3.1,SSW,10.4,-,N/A,Rain-Thunderstorm,Light Thunderstorms and Rain,210,2012-11-17 22:30:00
11:00 PM,59.0,57.2,94,29.80,3.1,SW,13.8,-,N/A,Rain-Thunderstorm,Light Thunderstorms and Rain,220,2012-11-17 23:00:00
11:30 PM,59.0,57.2,94,29.83,3.1,SW,10.4,-,N/A,Rain-Thunderstorm,Light Thunderstorms and Rain,230,2012-11-17 23:30:00